• In Hungary
  • List of Countries
  • For 7 days
  • Water Temperature
  • Satellite Maps
  • Weather Map
  • News
  • Weather Widgets
  • user-avatar
    Login

    Hourly Weather Moldovichi

    Today, 23 October, Tuesday

    Time Temperature Precipitation Wind Pressure Humidity
    00:00 +6°C° 0.1 mm 4 mps 747 mmHg 89%
    01:00 +5°C° 0.1 mm 4 mps 747 mmHg 91%
    02:00 +4°C° 0.1 mm 3 mps 747 mmHg 93%
    03:00 +4°C° 0 mm 3 mps 747 mmHg 94%
    04:00 +3°C° 0 mm 3 mps 746 mmHg 94%
    05:00 +3°C° 0 mm 3 mps 746 mmHg 95%
    06:00 +3°C° 0 mm 3 mps 745 mmHg 94%
    07:00 +3°C° 0 mm 4 mps 745 mmHg 93%
    08:00 +3°C° 0 mm 4 mps 744 mmHg 92%
    09:00 +3°C° 0 mm 5 mps 743 mmHg 88%
    10:00 +5°C° 0 mm 5 mps 742 mmHg 83%
    11:00 +5°C° 0 mm 6 mps 741 mmHg 79%
    12:00 +4°C° 0.6 mm 7 mps 740 mmHg 78%
    13:00 +4°C° 0.6 mm 7 mps 738 mmHg 78%
    14:00 +4°C° 0.6 mm 8 mps 737 mmHg 77%
    15:00 +4°C° 1 mm 8 mps 735 mmHg 79%
    16:00 +4°C° 1 mm 8 mps 734 mmHg 80%
    17:00 +2°C° 1 mm 8 mps 732 mmHg 82%
    18:00 +4°C° 0.8 mm 8 mps 731 mmHg 83%
    19:00 +4°C° 0.8 mm 8 mps 730 mmHg 85%
    20:00 +5°C° 0.8 mm 8 mps 729 mmHg 86%
    21:00 +5°C° 0.3 mm 7 mps 728 mmHg 86%
    22:00 +5°C° 0.3 mm 7 mps 728 mmHg 85%
    23:00 +5°C° 0.3 mm 6 mps 727 mmHg 85%

    Tomorrow, 24 October, Wednesday

    Time Temperature Precipitation Wind Pressure Humidity
    00:00 +5°C° 0.2 mm 6 mps 726 mmHg 85%
    01:00 +4°C° 0.2 mm 6 mps 726 mmHg 85%
    02:00 +4°C° 0.2 mm 6 mps 725 mmHg 85%
    03:00 +4°C° 0.3 mm 6 mps 724 mmHg 85%
    04:00 +5°C° 0.3 mm 5 mps 724 mmHg 86%
    05:00 +3°C° 0.3 mm 5 mps 723 mmHg 86%
    06:00 +3°C° 0.4 mm 5 mps 723 mmHg 86%
    07:00 +3°C° 0.4 mm 5 mps 723 mmHg 86%
    08:00 +3°C° 0.4 mm 5 mps 723 mmHg 86%
    09:00 +3°C° 0.1 mm 6 mps 724 mmHg 81%
    10:00 +3°C° 0.1 mm 7 mps 724 mmHg 75%
    11:00 +4°C° 0.1 mm 7 mps 725 mmHg 69%
    12:00 +4°C° 0.5 mm 7 mps 724 mmHg 71%
    13:00 +4°C° 0.5 mm 8 mps 724 mmHg 73%
    14:00 +4°C° 0.5 mm 8 mps 724 mmHg 74%
    15:00 +4°C° 0.9 mm 7 mps 724 mmHg 77%
    16:00 +4°C° 0.9 mm 7 mps 724 mmHg 80%
    17:00 +4°C° 0.9 mm 7 mps 725 mmHg 83%
    18:00 +4°C° 0.1 mm 7 mps 726 mmHg 83%
    19:00 +3°C° 0.1 mm 6 mps 727 mmHg 83%
    20:00 +3°C° 0.1 mm 5 mps 728 mmHg 83%
    21:00 +3°C° 0.2 mm 6 mps 729 mmHg 83%
    22:00 +3°C° 0.2 mm 7 mps 730 mmHg 84%
    23:00 +4°C° 0.2 mm 7 mps 731 mmHg 84%

    Day after tomorrow, 25 October, Thursday

    Time Temperature Precipitation Wind Pressure Humidity
    00:00 +2°C° 0.1 mm 8 mps 732 mmHg 83%
    01:00 +2°C° 0.1 mm 8 mps 732 mmHg 81%
    02:00 +2°C° 0.1 mm 8 mps 733 mmHg 79%
    03:00 +2°C° 0 mm 8 mps 733 mmHg 80%
    04:00 +2°C° 0 mm 7 mps 734 mmHg 82%
    05:00 +2°C° 0 mm 7 mps 734 mmHg 83%
    06:00 +2°C° 0 mm 6 mps 734 mmHg 83%
    07:00 +2°C° 0 mm 6 mps 735 mmHg 83%
    08:00 +1°C° 0 mm 5 mps 735 mmHg 83%
    09:00 +2°C° 0 mm 5 mps 735 mmHg 80%
    10:00 +3°C° 0 mm 5 mps 734 mmHg 76%
    11:00 +5°C° 0 mm 5 mps 734 mmHg 73%
    12:00 +5°C° 0.2 mm 5 mps 734 mmHg 73%
    13:00 +5°C° 0.2 mm 5 mps 733 mmHg 72%
    14:00 +5°C° 0.2 mm 5 mps 732 mmHg 71%
    15:00 +4°C° 0.4 mm 4 mps 732 mmHg 75%
    16:00 +4°C° 0.4 mm 2 mps 732 mmHg 79%
    17:00 +5°C° 0.4 mm 1 mps 731 mmHg 83%
    18:00 +4°C° 0.1 mm 2 mps 732 mmHg 84%
    19:00 +3°C° 0.1 mm 2 mps 732 mmHg 85%
    20:00 +3°C° 0.1 mm 2 mps 733 mmHg 87%
    21:00 +3°C° 0 mm 2 mps 734 mmHg 89%
    22:00 +2°C° 0 mm 2 mps 734 mmHg 91%
    23:00 +2°C° 0 mm 2 mps 735 mmHg 92%

    26 October, Friday

    Time Temperature Precipitation Wind Pressure Humidity
    00:00 +1°C° 0 mm 2 mps 736 mmHg 93%
    01:00 +1°C° 0 mm 2 mps 736 mmHg 94%
    02:00 +1°C° 0 mm 2 mps 736 mmHg 95%
    03:00 +1°C° 0 mm 2 mps 737 mmHg 95%
    04:00 0°C° 0 mm 3 mps 737 mmHg 96%
    05:00 0°C° 0 mm 3 mps 737 mmHg 96%
    06:00 +1°C° 0.1 mm 3 mps 737 mmHg 96%
    07:00 +1°C° 0.1 mm 3 mps 738 mmHg 95%
    08:00 +1°C° 0.1 mm 4 mps 738 mmHg 95%
    09:00 +3°C° 0 mm 4 mps 738 mmHg 89%
    10:00 +5°C° 0 mm 5 mps 738 mmHg 83%
    11:00 +6°C° 0 mm 5 mps 739 mmHg 77%
    12:00 +6°C° 0 mm 5 mps 739 mmHg 74%
    13:00 +7°C° 0 mm 5 mps 739 mmHg 71%
    14:00 +7°C° 0 mm 5 mps 739 mmHg 68%
    15:00 +7°C° 0 mm 4 mps 739 mmHg 73%
    16:00 +6°C° 0 mm 4 mps 739 mmHg 79%
    17:00 +5°C° 0 mm 3 mps 739 mmHg 84%
    18:00 +5°C° 0 mm 3 mps 740 mmHg 87%
    19:00 +4°C° 0 mm 3 mps 740 mmHg 89%
    20:00 +4°C° 0 mm 3 mps 740 mmHg 92%
    21:00 +4°C° 0 mm 3 mps 740 mmHg 92%
    22:00 +3°C° 0 mm 3 mps 740 mmHg 92%
    23:00 +3°C° 0 mm 3 mps 740 mmHg 92%

    27 October, Saturday

    Time Temperature Precipitation Wind Pressure Humidity
    00:00 +3°C° 0 mm 3 mps 740 mmHg 91%
    01:00 +3°C° 0 mm 3 mps 739 mmHg 91%
    02:00 +3°C° 0 mm 4 mps 739 mmHg 91%
    03:00 +4°C° 0 mm 4 mps 739 mmHg 91%
    04:00 +3°C° 0 mm 5 mps 738 mmHg 91%
    05:00 +3°C° 0 mm 5 mps 738 mmHg 91%
    06:00 +5°C° 0 mm 5 mps 737 mmHg 91%
    07:00 +5°C° 0 mm 5 mps 737 mmHg 90%
    08:00 +4°C° 0 mm 6 mps 736 mmHg 90%
    09:00 +5°C° 0.1 mm 6 mps 736 mmHg 88%
    10:00 +7°C° 0.1 mm 6 mps 736 mmHg 85%
    11:00 +8°C° 0.1 mm 6 mps 736 mmHg 82%
    12:00 +9°C° 0 mm 5 mps 736 mmHg 81%
    13:00 +10°C° 0 mm 5 mps 736 mmHg 79%
    14:00 +10°C° 0 mm 5 mps 736 mmHg 78%
    15:00 +11°C° 0 mm 4 mps 736 mmHg 80%
    16:00 +10°C° 0 mm 3 mps 736 mmHg 83%
    17:00 +9°C° 0 mm 3 mps 736 mmHg 86%
    18:00 +9°C° 0.2 mm 2 mps 736 mmHg 87%
    19:00 +8°C° 0.2 mm 2 mps 736 mmHg 89%
    20:00 +8°C° 0.2 mm 2 mps 736 mmHg 91%
    21:00 +8°C° 0.1 mm 2 mps 736 mmHg 91%
    22:00 +7°C° 0.1 mm 2 mps 736 mmHg 90%
    23:00 +7°C° 0.1 mm 2 mps 736 mmHg 90%

    28 October, Sunday

    Time Temperature Precipitation Wind Pressure Humidity
    00:00 +8°C° 0 mm 1 mps 736 mmHg 88%
    01:00 +8°C° 0 mm 1 mps 736 mmHg 87%
    02:00 +8°C° 0 mm 1 mps 736 mmHg 85%
    03:00 +7°C° 0.3 mm 1 mps 736 mmHg 85%
    04:00 +7°C° 0.3 mm 1 mps 736 mmHg 85%
    05:00 +7°C° 0.3 mm 1 mps 736 mmHg 85%
    06:00 +7°C° 0.4 mm 1 mps 736 mmHg 86%
    07:00 +7°C° 0.4 mm 1 mps 735 mmHg 86%
    08:00 +7°C° 0.4 mm 1 mps 735 mmHg 86%
    09:00 +5°C° 1.3 mm 2 mps 735 mmHg 87%
    10:00 +5°C° 1.3 mm 2 mps 735 mmHg 88%
    11:00 +5°C° 1.3 mm 2 mps 735 mmHg 88%
    12:00 +5°C° 0.2 mm 2 mps 735 mmHg 87%
    13:00 +5°C° 0.2 mm 2 mps 735 mmHg 86%
    14:00 +5°C° 0.2 mm 2 mps 735 mmHg 84%
    15:00 +4°C° 0.1 mm 3 mps 735 mmHg 85%
    16:00 +4°C° 0.1 mm 3 mps 736 mmHg 85%
    17:00 +4°C° 0.1 mm 3 mps 737 mmHg 86%
    18:00 +4°C° 0 mm 4 mps 737 mmHg 86%
    19:00 +3°C° 0 mm 4 mps 738 mmHg 86%
    20:00 +3°C° 0 mm 4 mps 739 mmHg 86%
    21:00 +3°C° 0 mm 4 mps 740 mmHg 86%
    22:00 +2°C° 0 mm 5 mps 741 mmHg 86%
    23:00 +1°C° 0 mm 5 mps 741 mmHg 85%

    29 October, Monday

    Time Temperature Precipitation Wind Pressure Humidity
    00:00 +1°C° 0 mm 5 mps 742 mmHg 86%
    01:00 +1°C° 0 mm 4 mps 743 mmHg 87%
    02:00 0°C° 0 mm 4 mps 743 mmHg 87%
    03:00 0°C° 0 mm 4 mps 744 mmHg 88%
    04:00 0°C° 0 mm 4 mps 744 mmHg 89%
    05:00 0°C° 0 mm 3 mps 745 mmHg 90%
    06:00 0°C° 0 mm 3 mps 745 mmHg 89%
    07:00 0°C° 0 mm 3 mps 746 mmHg 89%
    08:00 0°C° 0 mm 3 mps 746 mmHg 88%
    09:00 0°C° 0 mm 4 mps 747 mmHg 83%
    10:00 +3°C° 0 mm 4 mps 747 mmHg 77%
    11:00 +4°C° 0 mm 4 mps 747 mmHg 71%
    12:00 +5°C° 0 mm 4 mps 748 mmHg 69%
    13:00 +5°C° 0 mm 3 mps 748 mmHg 68%
    14:00 +7°C° 0 mm 3 mps 748 mmHg 66%
    15:00 +6°C° 0 mm 2 mps 748 mmHg 70%
    16:00 +5°C° 0 mm 2 mps 747 mmHg 74%
    17:00 +5°C° 0 mm 1 mps 747 mmHg 79%
    18:00 +4°C° 0 mm 2 mps 747 mmHg 80%
    19:00 +4°C° 0 mm 2 mps 747 mmHg 81%
    20:00 +3°C° 0 mm 2 mps 748 mmHg 82%
    21:00 +3°C° 0 mm 2 mps 747 mmHg 81%
    22:00 +4°C° 0 mm 2 mps 747 mmHg 80%
    23:00 +4°C° 0 mm 2 mps 747 mmHg 78%
    Show more